IRIDIUM 7 1 24793U 97020B 22146.45909803 .00000358 00000-0 12006-3 0 9994 2 24793 86.3937 284.7291 0002119 96.3825 263.7613 14.34494826311594 IRIDIUM 5 1 24795U 97020D 22146.32102969 .00003483 00000-0 37469-3 0 9992 2 24795 86.4003 231.9611 0138184 140.5719 220.5661 14.81312141319422 IRIDIUM 4 1 24796U 97020E 22146.45388945 .00000389 00000-0 12891-3 0 9991 2 24796 86.3936 282.3495 0001974 90.6093 269.5330 14.35399945312068 IRIDIUM 914 1 24836U 97030A 22146.44281277 .00000418 00000-0 12893-3 0 9991 2 24836 86.3905 294.1793 0001084 33.6780 326.4487 14.39114287446290 IRIDIUM 16 1 24841U 97030F 22146.50802154 .00000405 00000-0 12976-3 0 9995 2 24841 86.4004 314.1851 0004189 114.0918 246.0718 14.37068944306410 IRIDIUM 911 1 24842U 97030G 22146.55042169 .00000531 00000-0 14517-3 0 9996 2 24842 86.4430 313.8575 0013213 210.2299 149.8143 14.45392836313545 IRIDIUM 17 1 24870U 97034B 22146.55589753 .00000388 00000-0 12650-3 0 9992 2 24870 86.3956 343.9491 0003897 80.0654 280.0983 14.36125472303105 IRIDIUM 920 1 24871U 97034C 22146.49081270 .00000400 00000-0 12090-3 0 9990 2 24871 86.3951 325.8381 0012435 154.8049 205.3759 14.39841624305676 IRIDIUM 921 1 24873U 97034E 22146.44625135 .00005765 00000-0 30272-3 0 9992 2 24873 86.3886 291.2570 0007034 176.8273 183.3014 15.15490991360563 IRIDIUM 26 1 24903U 97043A 22146.29814384 .00000312 00000-0 10148-3 0 9998 2 24903 86.4009 219.3189 0002248 98.0845 262.0607 14.35574482296294 IRIDIUM 22 1 24907U 97043E 22146.20308867 .00000309 00000-0 10265-3 0 9993 2 24907 86.4009 222.0107 0002192 91.8125 268.3322 14.34504864296434 DUMMY MASS 1 1 24925U 97048A 22146.47473623 .00000420 00000-0 45532-4 0 9990 2 24925 86.3321 291.3786 0008637 130.5762 229.6215 14.85373955339384 DUMMY MASS 2 1 24926U 97048B 22146.45862579 .00000414 00000-0 45048-4 0 9996 2 24926 86.3318 292.8010 0009117 140.1340 220.0556 14.85140022338941 IRIDIUM 29 1 24944U 97051A 22146.37360568 .00000351 00000-0 11657-3 0 9990 2 24944 86.3974 252.0960 0001990 89.0338 271.1086 14.34937398292904 IRIDIUM 33 1 24946U 97051C 22146.38782233 .00000272 00000-0 90836-4 0 9999 2 24946 86.3889 251.4624 0009881 117.9698 242.2498 14.33828069292525 IRIDIUM 28 1 24948U 97051E 22146.37821384 .00000327 00000-0 10596-3 0 9996 2 24948 86.3982 250.2525 0002433 100.1460 260.0011 14.35874999293373 IRIDIUM 36 1 24967U 97056C 22146.44365767 .00000394 00000-0 12906-3 0 9999 2 24967 86.3945 281.9056 0002285 87.5191 272.6267 14.35954745291746 IRIDIUM 39 1 25042U 97069D 22146.46060716 .00000614 00000-0 16402-3 0 9996 2 25042 86.3898 329.2401 0021023 73.7734 286.5779 14.46647722287258 IRIDIUM 38 1 25043U 97069E 22146.55209190 .00000368 00000-0 11916-3 0 9999 2 25043 86.3953 342.5606 0003048 115.8612 244.2900 14.36385287285446 IRIDIUM 42 1 25077U 97077A 22146.49638885 .00000344 00000-0 11452-3 0 9994 2 25077 86.3963 347.4111 0002375 102.2333 257.9129 14.34761645280860 IRIDIUM 44 1 25078U 97077B 22146.06657055 .00000446 00000-0 13946-3 0 9991 2 25078 86.3941 332.5038 0004097 94.4328 265.7338 14.38495745282881 IRIDIUM 45 1 25104U 97082A 22146.41948602 .00005560 00000-0 41320-3 0 9996 2 25104 86.3844 210.0387 0207199 58.8019 303.3332 14.87120899284513 IRIDIUM 24 1 25105U 97082B 22146.51227588 .00000368 00000-0 11010-3 0 9995 2 25105 86.3955 193.2238 0012450 154.7385 205.4426 14.40226140282261 IRIDIUM 51 1 25262U 98018A 22146.25260364 .00005644 00000-0 37626-3 0 9992 2 25262 86.4015 221.6653 0195503 31.3554 329.9156 14.92437114278561 IRIDIUM 57 1 25273U 98019B 22146.38621177 .00000314 00000-0 10454-3 0 9991 2 25273 86.3977 253.0478 0002154 92.7385 267.4057 14.34537415264477 IRIDIUM 63 1 25286U 98021B 22146.52947295 .00000295 00000-0 96924-4 0 9991 2 25286 86.4026 190.0056 0002057 88.2170 271.9262 14.34995953263497 IRIDIUM 69 1 25319U 98026A 22146.53155192 .00000380 00000-0 11678-3 0 9998 2 25319 86.4035 206.4878 0004494 97.8170 262.3539 14.39056210262243 IRIDIUM 71 1 25320U 98026B 22146.22658798 .00000351 00000-0 10630-3 0 9991 2 25320 86.4017 201.6628 0003371 129.9471 230.2024 14.39433641262698 IRIDIUM 73 1 25344U 98032C 22146.49205281 .00000448 00000-0 11179-3 0 9994 2 25344 86.4427 160.2417 0002529 101.7053 258.4435 14.49441210268565 IRIDIUM 82 1 25467U 98051A 22146.41766087 .00006808 00000-0 47566-3 0 9994 2 25467 86.3969 275.6586 0172665 68.3543 293.5976 14.93738401255623 IRIDIUM 2 1 25527U 98066A 22146.23754820 .00008708 00000-0 37317-3 0 9993 2 25527 85.5309 44.0679 0005407 290.6357 69.4306 15.22598334292127